Home > Weather > Sevierville > Past weeks

Flag for USA Weather for the Past 2 Weeks in Sevierville, Tennessee, USA

Now
59 °F

Overcast.


Feels Like: 59 °F
Forecast: 52 / 66 °F
Wind: No wind

Location: McGhee Tyson Airport

Current Time: May 4, 2016 at 2:51:38 AM

Latest Report: May 4, 2016 at 12:53 AM


Visibility: 10 mi

Pressure: 29.84 "Hg

Humidity: 67%

Dew Point: 48 °F

Location of SeviervilleLocation

Historic Weather in Sevierville — Graph

°F

Sevierville Temperature Yesterday

Maximum temperature yesterday: 71 °F (at 3:53 PM)
Minimum temperature yesterday: 60 °F (at 9:03 AM)
Average temperature yesterday: 64 °F

High & Low Weather Summary for the Past Weeks

 TemperatureHumidityPressure
High85 °F (Apr 20, 5:53 PM)100% (Apr 23, 1:53 AM)30.21 "Hg (Apr 23, 1:53 AM)
Low49 °F (Apr 24, 6:53 AM)21% (Apr 19, 5:53 PM)29.74 "Hg (Apr 27, 7:53 PM)
Average68 °F65%29.95 "Hg
* Reported Apr 19 12:53 AM — May 4 12:53 AM, Sevierville, Weather by CustomWeather, © 2016

Note: Actual official high and low records may vary slightly from our data, if they occured in-between our weather recording intervals... More about our weather records

Advertising

Sevierville Weather History for the Previous 24 Hours

Scroll right to see more
 ConditionsComfort  
Time TempWeatherWind HumidityBarometerVisibility
12:53 AM
Wed, May 4
59 °FOvercast.No wind67%29.84 "Hg10 mi
11:53 PM
Tue, May 3
60 °FPassing clouds.5 mph67%29.85 "Hg10 mi
10:53 PM61 °FPassing clouds.No wind62%29.86 "Hg10 mi
9:53 PM62 °FPassing clouds.5 mph60%29.85 "Hg10 mi
8:53 PM63 °FPartly sunny.7 mph58%29.84 "Hg10 mi
7:53 PM65 °FPartly sunny.10 mph54%29.83 "Hg10 mi
6:53 PM67 °FScattered clouds.13 mph53%29.83 "Hg10 mi
5:53 PM70 °FScattered clouds.13 mph51%29.82 "Hg10 mi
4:53 PM69 °FScattered clouds.10 mph51%29.81 "Hg10 mi
3:53 PM71 °FPartly sunny.15 mph51%29.83 "Hg10 mi
2:53 PM69 °FPartly sunny.10 mph55%29.85 "Hg10 mi
1:53 PM68 °FPartly sunny.12 mph59%29.86 "Hg10 mi
12:53 PM66 °FMore clouds than sun.7 mph73%29.88 "Hg10 mi
11:50 AM64 °FCloudy.3 mph78%29.92 "Hg10 mi
10:53 AM63 °FPartly sunny.No wind81%29.89 "Hg10 mi
9:53 AM60 °FLight rain. Fog.8 mph86%29.89 "Hg4 mi
9:03 AM60 °FLight rain. Fog.8 mph96%29.90 "Hg3 mi
8:53 AM61 °FLight rain. Fog.9 mph93%29.88 "Hg2 mi
7:53 AM61 °FFog.7 mph93%29.87 "Hg4 mi
6:53 AM62 °FOvercast.3 mph90%29.86 "Hg10 mi
6:00 AM62 °FMostly cloudy.No wind93%29.87 "Hg9 mi
4:53 AM62 °FMostly cloudy.No wind90%29.85 "Hg10 mi
3:53 AM62 °FMostly cloudy.No wind90%29.85 "Hg10 mi
2:53 AM61 °FMostly cloudy.No wind93%29.85 "Hg10 mi
Weather by CustomWeather, © 2016

See weather overviewHow to use our weather pages